This demonstration page uses our WeatherBlox Daily Observations layout. Learn more.

Left ArrowRight Arrow

53.62937, 11.41316

Hourly Observations for December 24, 2021

Temp ( °F °C ) Dew Point ( °F °C ) Humidity (%) Winds ( mph kmh ) Pressure ( in mb ) Visibility ( mi km ) Precip ( " mm )
12:20 am 00:20 Mostly Clear 32 0 32 0 100 100 VRB 1 2 29.47 998 1 1 N/A
12:50 am 00:50 Mostly Clear 34 1 32 0 93 93 VRB 2 4 29.44 997 1 1 N/A
1:20 am 01:20 Mostly Clear 34 1 34 1 100 100 VRB 2 4 29.44 997 1 2 N/A
1:50 am 01:50 Mostly Clear 34 1 34 1 100 100 VRB 2 4 29.44 997 1 1 N/A
2:20 am 02:20 Mostly Clear 36 2 34 1 93 93 VRB 2 4 29.44 997 2 3 N/A
2:50 am 02:50 Partly Cloudy 37 3 37 3 100 100 WSW 7 11 29.44 997 4 7 N/A
3:20 am 03:20 Mostly Cloudy 37 3 37 3 100 100 W 7 11 29.41 996 5 8 N/A
3:50 am 03:50 Mostly Clear 37 3 37 3 100 100 WNW 3 6 29.44 997 3 5 N/A
4:20 am 04:20 Mostly Clear 36 2 36 2 100 100 N 2 4 29.41 996 1 1 N/A
4:50 am 04:50 Mostly Clear 34 1 34 1 100 100 NE 3 6 29.41 996 1 1 N/A
5:20 am 05:20 Partly Cloudy 34 1 32 0 93 93 NNE 3 6 29.41 996 0 1 N/A
5:50 am 05:50 Mostly Clear 34 1 34 1 100 100 VRB 2 4 29.41 996 1 1 N/A
6:20 am 06:20 Partly Cloudy 34 1 34 1 100 100 WNW 3 6 29.44 997 1 1 N/A
6:50 am 06:50 Mostly Clear 34 1 34 1 100 100 NW 5 7 29.44 997 1 2 N/A
7:20 am 07:20 Mostly Clear 34 1 34 1 100 100 NNW 5 7 29.44 997 3 5 N/A
7:50 am 07:50 Mostly Cloudy with Light Rain/Snow 34 1 34 1 100 100 NNW 5 7 29.44 997 4 7 N/A
8:20 am 08:20 Mostly Cloudy 34 1 32 0 93 93 WNW 2 4 29.44 997 5 8 N/A
8:50 am 08:50 Mostly Cloudy 34 1 34 1 100 100 VRB 2 4 29.47 998 4 6 N/A
9:20 am 09:20 Partly Cloudy with Drizzle 34 1 34 1 100 100 W 3 6 29.47 998 3 4 N/A
9:50 am 09:50 Mostly Cloudy with Light Rain 34 1 34 1 100 100 W 5 7 29.47 998 1 2 N/A
10:20 am 10:20 Mostly Cloudy with Drizzle 34 1 34 1 100 100 NW 5 7 29.47 998 1 2 N/A
10:50 am 10:50 Mostly Cloudy with Light Rain/Snow 34 1 34 1 100 100 WNW 6 9 29.47 998 2 3 N/A
11:20 am 11:20 Cloudy with Light Snow 34 1 32 0 93 93 W 5 7 29.50 999 2 3 N/A
11:50 am 11:50 Mostly Cloudy with Light Snow 32 0 32 0 100 100 W 5 7 29.50 999 2 3 N/A
12:20 pm 12:20 Mostly Cloudy with Light Rain 34 1 32 0 93 93 WSW 5 7 29.50 999 4 7 N/A
12:50 pm 12:50 Partly Cloudy 34 1 32 0 93 93 WNW 7 11 29.50 999 5 8 N/A
1:20 pm 13:20 Mostly Cloudy 34 1 32 0 93 93 WNW 9 15 29.53 1000 6 9 N/A
1:50 pm 13:50 Mostly Cloudy 34 1 32 0 93 93 NW 8 13 29.53 1000 4 7 N/A
2:20 pm 14:20 Mostly Cloudy 34 1 32 0 93 93 NW 6 9 29.53 1000 6 9 N/A
2:50 pm 14:50 Mostly Cloudy 34 1 32 0 93 93 N 12 19 29.56 1001 30 48 N/A
3:20 pm 15:20 Mostly Cloudy 34 1 32 0 93 93 N 9 15 29.59 1002 30 48 N/A
3:50 pm 15:50 Mostly Cloudy 34 1 28 -2 81 81 NNE 13 20 29.59 1002 30 48 N/A
4:20 pm 16:20 Mostly Cloudy 32 0 25 -4 75 75 NNE 13 20 29.62 1003 30 48 N/A
4:50 pm 16:50 Mostly Cloudy 32 0 19 -7 60 60 N 15 24 29.65 1004 30 48 N/A
5:20 pm 17:20 Mostly Cloudy 30 -1 18 -8 59 59 NNE 15 24 29.68 1005 30 48 N/A
5:50 pm 17:50 Mostly Cloudy 28 -2 18 -8 64 64 NNE 16 26 29.71 1006 30 48 N/A
6:20 pm 18:20 Mostly Cloudy 28 -2 12 -11 51 51 NNE 15 24 29.71 1006 30 48 N/A
6:50 pm 18:50 Mostly Cloudy 27 -3 12 -11 54 54 NNE 14 22 29.71 1006 30 48 N/A
7:50 pm 19:50 Mostly Cloudy 27 -3 12 -11 54 54 NNE 8 13 29.74 1007 30 48 N/A
8:20 pm 20:20 Mostly Clear 25 -4 12 -11 59 59 NNE 9 15 29.74 1007 30 48 N/A
8:50 pm 20:50 Mostly Clear 23 -5 12 -11 63 63 NNE 6 9 29.77 1008 30 48 N/A
9:20 pm 21:20 Mostly Clear 23 -5 14 -10 68 68 NNE 3 6 29.77 1008 30 48 N/A
9:50 pm 21:50 Mostly Clear 21 -6 14 -10 74 74 SW 2 4 29.80 1009 30 48 N/A
10:20 pm 22:20 Mostly Clear 21 -6 14 -10 74 74 SW 3 6 29.80 1009 30 48 N/A
10:50 pm 22:50 Mostly Clear 19 -7 14 -10 79 79 SW 3 6 29.80 1009 30 48 N/A
11:20 pm 23:20 Mostly Clear 19 -7 14 -10 79 79 SSW 2 4 29.80 1009 30 48 N/A
11:50 pm 23:50 Mostly Clear 16 -9 14 -10 93 93 Calm 29.83 1010 30 48 N/A

Powered by AerisWeather